Weather History for Baker, MT

Change the Weather History Date:

Sunday, May 26, 2013

  Actual Average Record
Temperature  
Mean Temperature 62 °F -  
Max Temperature 75 °F 78 °F 87 °F (2003)
Min Temperature 52 °F 43 °F 37 °F (2008)
Degree Days  
Heating Degree Days 2    
Growing Degree Days 12 (Base 50)    
Moisture  
Dew Point 52 °F    
Average Humidity 70    
Maximum Humidity 88    
Minimum Humidity 46    
Precipitation  
Precipitation 0.81 in - - ()
Sea Level Pressure  
Sea Level Pressure 29.89 in    
Wind  
Wind Speed 15 mph (ESE)    
Max Wind Speed 28 mph    
Max Gust Speed 34 mph    
Visibility 9 miles    
Events Rain , Thunderstorm    
Averages and records for this station are not official NWS values.
T = Trace of Precipitation, MM = Missing Value Source: NWS Daily Summary

Daily Weather History Graph

Daily Weather History Graph

Search for Another Location

Airport:

Trip Planner

Search our weather history database for the weather conditions in past years. The results will help you decide how hot, cold, wet, or windy it might be!

Date:

Astronomy

May. 26, 2013 Rise Set
Actual Time 5:12 AM MDT 8:36 PM MDT
Civil Twilight 4:35 AM MDT 9:13 PM MDT
Nautical Twilight 3:46 AM MDT 10:02 PM MDT
Astronomical Twilight 2:44 AM MDT 11:05 PM MDT
Moon 10:24 PM MDT (5/26) 6:45 AM MDT (5/26)
Length of Visible Light 16h 38m
Length of Day
15h 23m
Waning Gibbous, 96% of the Moon is Illuminated
May 26
Waning Gibbous
May 31
Last Quarter
Jun 8
New
Jun 16
First Quarter
Jun 23
Full

Hourly Weather History & Observations

Time (MDT) Temp. Dew Point Humidity Pressure Visibility Wind Dir Wind Speed Gust Speed Precip Events Conditions
12:05 AM 57.2 °F 51.8 °F 82% 29.95 in 10.0 mi North 13.8 mph 23.0 mph N/A Thunderstorm Overcast
12:22 AM 59.0 °F 51.8 °F 77% 29.95 in 10.0 mi NE 9.2 mph 34.5 mph N/A Thunderstorm Thunderstorm
12:38 AM 55.4 °F 51.8 °F 88% 29.96 in 2.0 mi NNE 17.3 mph 27.6 mph 0.28 in Rain , Thunderstorm Heavy Thunderstorms and Rain
12:46 AM 55.4 °F 50.0 °F 82% 29.95 in 3.0 mi ENE 20.7 mph - 0.33 in Rain , Thunderstorm Heavy Thunderstorms and Rain
12:51 AM 55.0 °F 48.9 °F 80% 29.92 in 5.0 mi NE 19.6 mph - 0.38 in Rain , Thunderstorm Thunderstorms and Rain
1:51 AM 55.0 °F 50.0 °F 83% 29.89 in 6.0 mi ESE 18.4 mph - 0.32 in Rain , Thunderstorm Rain
2:05 AM 55.4 °F 50.0 °F 82% 29.90 in 10.0 mi ESE 19.6 mph - 0.01 in Rain Light Rain
2:51 AM 54.0 °F 50.0 °F 86% 29.92 in 10.0 mi SE 6.9 mph - 0.02 in   Overcast
3:51 AM 52.0 °F 48.0 °F 86% 29.94 in 10.0 mi Calm Calm - 0.09 in   Mostly Cloudy
4:51 AM 52.0 °F 46.9 °F 83% 29.92 in 10.0 mi SE 12.7 mph - N/A   Overcast
5:51 AM 52.0 °F 46.9 °F 83% 29.91 in 10.0 mi SSE 16.1 mph - N/A   Scattered Clouds
6:51 AM 55.9 °F 48.9 °F 77% 29.91 in 10.0 mi SSE 18.4 mph - N/A   Partly Cloudy
7:51 AM 60.1 °F 50.0 °F 69% 29.91 in 10.0 mi SSE 19.6 mph 26.5 mph N/A   Clear
8:51 AM 64.0 °F 50.0 °F 60% 29.91 in 10.0 mi SSE 17.3 mph - N/A   Clear
9:51 AM 66.9 °F 50.0 °F 54% 29.92 in 10.0 mi SSE 16.1 mph - N/A   Clear
10:51 AM 68.0 °F 50.0 °F 52% 29.93 in 10.0 mi East 4.6 mph - N/A   Clear
11:51 AM 70.0 °F 50.0 °F 49% 29.91 in 10.0 mi Variable 3.5 mph - N/A   Mostly Cloudy
12:51 PM 72.0 °F 52.0 °F 49% 29.90 in 10.0 mi SE 9.2 mph - N/A   Mostly Cloudy
1:51 PM 73.0 °F 52.0 °F 48% 29.89 in 10.0 mi SE 11.5 mph - N/A   Partly Cloudy
2:51 PM 73.0 °F 53.1 °F 49% 29.88 in 10.0 mi East 11.5 mph - N/A   Scattered Clouds
3:51 PM 73.9 °F 52.0 °F 46% 29.87 in 10.0 mi East 12.7 mph - N/A   Scattered Clouds
4:51 PM 72.0 °F 54.0 °F 53% 29.86 in 10.0 mi East 15.0 mph - N/A   Scattered Clouds
5:51 PM 71.1 °F 55.0 °F 57% 29.85 in 10.0 mi SE 23.0 mph 26.5 mph N/A   Scattered Clouds
6:51 PM 69.1 °F 54.0 °F 58% 29.82 in 10.0 mi ESE 19.6 mph 25.3 mph N/A   Clear
7:51 PM 66.9 °F 54.0 °F 63% 29.83 in 10.0 mi ESE 10.4 mph - N/A   Clear
8:51 PM 64.0 °F 55.9 °F 75% 29.81 in 10.0 mi ESE 11.5 mph - N/A   Partly Cloudy
9:51 PM 64.0 °F 57.0 °F 78% 29.81 in 10.0 mi SE 19.6 mph - N/A   Clear
10:24 PM 64.4 °F 57.2 °F 77% 29.85 in 10.0 mi SE 26.5 mph 33.4 mph N/A   Mostly Cloudy
10:51 PM 64.0 °F 57.0 °F 78% 29.81 in 10.0 mi SE 21.9 mph 27.6 mph N/A   Overcast
11:23 PM 62.6 °F 57.2 °F 82% 29.87 in 10.0 mi SSE 27.6 mph 34.5 mph N/A   Overcast
11:51 PM 63.0 °F 57.9 °F 84% 29.82 in 10.0 mi SSE 19.6 mph 25.3 mph N/A   Overcast